DW4669 Weather Reports


Display with metric or nautical units.
time (UTC)temp
F
wind
direction
speed
MPH
gust
MPH
rain 1hr
in
rain 24hr
in
rain mn
in
humidity
%
barometer
mb
20260503021529 46 0 0.0 3.0 0.00 0.07 0.07 55 1011.5
20260503021014 47 0 0.0 1.0 0.00 0.07 0.07 57 1011.4
20260503020511 47 0 0.0 0.0 0.00 0.07 0.07 57 1011.5
20260503020032 47 0 0.0 4.0 0.00 0.07 0.07 58 1011.4
20260503015514 47 0 0.0 4.0 0.00 0.07 0.07 57 1011.3
20260503015011 47 0 0.0 0.0 0.00 0.07 0.07 61 1011.4
20260503014530 47 0 0.0 0.0 0.00 0.07 0.07 60 1011.2
20260503014012 47 0 0.0 0.0 0.00 0.07 0.07 59 1011.3
20260503013512 48 0 0.0 1.0 0.00 0.07 0.07 59 1011.3
20260503013037 48 0 0.0 1.0 0.00 0.07 0.07 58 1011.1
20260503012515 48 0 0.0 5.0 0.00 0.07 0.07 56 1011.2
20260503012011 48 0 1.0 5.0 0.00 0.07 0.07 54 1011.2
20260503011528 48 0 0.0 3.0 0.00 0.07 0.07 54 1011.1
20260503011011 49 0 0.0 5.0 0.00 0.07 0.07 54 1011.1
20260503010514 49 0 0.0 5.0 0.00 0.07 0.07 53 1011.0
20260503010031 49 0 0.0 6.0 0.00 0.07 0.07 51 1010.9
20260503005513 49 0 0.0 7.0 0.00 0.07 0.07 52 1010.8
20260503005012 49 0 1.0 7.0 0.00 0.07 0.07 50 1010.8
20260503004535 49 323 0.0 5.0 0.00 0.07 0.07 53 1010.7
20260503004016 49 0 0.0 5.0 0.00 0.07 0.07 52 1010.7
20260503003511 49 335 0.0 3.0 0.00 0.07 0.07 52 1010.7
20260503003042 49 0 0.0 6.0 0.00 0.07 0.07 52 1010.7
20260503002511 49 0 0.0 6.0 0.00 0.07 0.07 53 1010.8
20260503002011 49 0 0.0 4.0 0.00 0.07 0.07 52 1010.6
20260503001540 50 0 0.0 4.0 0.00 0.07 0.07 53 1010.5
20260503001012 50 0 0.0 4.0 0.00 0.07 0.07 52 1010.5
20260503000511 50 328 0.0 4.0 0.00 0.07 0.07 50 1010.5
20260503000034 50 329 1.0 5.0 0.00 0.07 0.07 50 1010.5
20260502235510 51 317 1.0 6.0 0.00 0.07 0.07 48 1010.4
20260502235015 51 296 1.0 6.0 0.00 0.07 0.07 48 1010.4
20260502234543 51 312 1.0 4.0 0.00 0.07 0.07 51 1010.4
20260502234012 51 317 0.0 5.0 0.00 0.07 0.07 49 1010.4
20260502233513 52 319 1.0 5.0 0.00 0.07 0.07 48 1010.3
20260502233039 52 317 2.0 6.0 0.00 0.07 0.07 46 1010.4
20260502232511 53 317 2.0 11.0 0.00 0.07 0.07 46 1010.3
20260502232014 53 317 2.0 11.0 0.00 0.07 0.07 45 1010.2
20260502231529 53 315 3.0 9.0 0.00 0.07 0.07 44 1010.3
20260502231011 53 0 1.0 10.0 0.00 0.07 0.07 44 1010.3
20260502230512 54 308 1.0 10.0 0.00 0.07 0.07 43 1010.2
20260502230034 54 273 2.0 9.0 0.00 0.07 0.07 45 1010.1
20260502225511 54 311 3.0 8.0 0.00 0.07 0.07 43 1010.1
20260502225014 54 316 2.0 9.0 0.00 0.07 0.07 44 1010.0
20260502224528 54 296 2.0 9.0 0.00 0.07 0.07 45 1010.0
20260502224014 55 312 1.0 9.0 0.00 0.07 0.07 45 1010.1
20260502223513 55 301 3.0 9.0 0.00 0.07 0.07 41 1010.1
20260502223039 55 248 3.0 9.0 0.00 0.07 0.07 43 1010.0
20260502222514 55 312 3.0 8.0 0.00 0.07 0.07 41 1010.0
20260502222015 56 296 2.0 7.0 0.00 0.07 0.07 42 1009.9
20260502221529 57 320 3.0 9.0 0.00 0.07 0.07 43 1010.0
20260502221012 57 317 3.0 11.0 0.00 0.07 0.07 46 1009.9
20260502220512 57 325 3.0 11.0 0.00 0.07 0.07 42 1009.8
20260502220030 57 306 4.0 11.0 0.00 0.07 0.07 42 1009.7
20260502215514 57 258 6.0 11.0 0.00 0.07 0.07 42 1009.8
20260502215016 57 302 3.0 10.0 0.00 0.07 0.07 40 1009.8
20260502214530 58 320 4.0 10.0 0.00 0.07 0.07 42 1009.7
20260502214015 58 329 4.0 10.0 0.00 0.07 0.07 40 1009.6
20260502213514 57 281 2.0 7.0 0.00 0.07 0.07 41 1009.5
20260502213028 55 291 1.0 9.0 0.00 0.07 0.07 43 1009.5
20260502212514 55 267 2.0 9.0 0.00 0.07 0.07 43 1009.5
20260502212014 56 332 4.0 9.0 0.00 0.07 0.07 44 1009.5
20260502211532 56 320 4.0 12.0 0.00 0.07 0.07 43 1009.5
20260502211010 57 309 5.0 12.0 0.00 0.07 0.07 45 1009.4
20260502210513 58 288 5.0 10.0 0.00 0.07 0.07 43 1009.3
20260502210037 57 285 3.0 9.0 0.00 0.07 0.07 42 1009.4
20260502205512 58 306 2.0 9.0 0.00 0.07 0.07 41 1009.3
20260502205014 59 299 3.0 10.0 0.00 0.07 0.07 43 1009.2
20260502204531 60 318 4.0 10.0 0.00 0.07 0.07 41 1009.3
20260502204013 60 310 4.0 10.0 0.00 0.07 0.07 40 1009.2
20260502203518 59 320 4.0 9.0 0.00 0.07 0.07 39 1009.1
20260502203033 58 333 2.0 8.0 0.00 0.07 0.07 49 1009.2
20260502202516 57 11 3.0 8.0 0.00 0.07 0.07 44 1009.3
20260502202011 57 328 2.0 8.0 0.00 0.07 0.07 40 1009.3
20260502201530 57 0 2.0 11.0 0.00 0.07 0.07 42 1009.5
20260502201032 58 333 5.0 11.0 0.00 0.07 0.07 40 1009.5
20260502200514 57 310 5.0 10.0 0.00 0.07 0.07 46 1009.5
20260502200030 57 308 4.0 9.0 0.00 0.07 0.07 43 1009.5
20260502195511 58 321 1.0 4.0 0.00 0.07 0.07 44 1009.6
20260502195010 57 290 0.0 6.0 0.00 0.07 0.07 42 1009.6
20260502194532 57 305 1.0 8.0 0.00 0.07 0.07 42 1009.8
20260502194013 58 315 3.0 9.0 0.00 0.07 0.07 41 1009.8
20260502193511 59 308 4.0 11.0 0.00 0.07 0.07 43 1009.8
20260502193033 59 320 3.0 11.0 0.00 0.07 0.07 53 1009.9
20260502192514 58 310 3.0 11.0 0.00 0.07 0.07 45 1009.9
20260502192011 57 294 1.0 10.0 0.00 0.07 0.07 40 1010.0
20260502191530 57 0 2.0 10.0 0.00 0.07 0.07 42 1010.1
20260502191014 58 313 3.0 8.0 0.00 0.07 0.07 50 1010.2
20260502190511 58 296 2.0 8.0 0.00 0.07 0.07 47 1010.2
20260502190041 58 323 1.0 8.0 0.00 0.07 0.07 47 1010.2
20260502185512 57 341 2.0 8.0 0.00 0.07 0.07 48 1010.3
20260502185011 57 266 0.0 8.0 0.00 0.07 0.07 47 1010.3
20260502184530 56 327 2.0 11.0 0.00 0.07 0.07 48 1010.4
20260502184017 56 288 4.0 11.0 0.00 0.07 0.07 45 1010.4
20260502183511 57 313 3.0 11.0 0.00 0.07 0.07 44 1010.4
20260502183032 57 317 3.0 11.0 0.00 0.07 0.07 49 1010.4
20260502182514 57 290 2.0 10.0 0.00 0.07 0.07 42 1010.4
20260502182015 58 325 4.0 10.0 0.00 0.07 0.07 45 1010.4
20260502181536 57 335 2.0 8.0 0.00 0.07 0.07 48 1010.3
20260502181014 57 325 3.0 9.0 0.00 0.07 0.07 46 1010.4
20260502180514 58 325 3.0 9.0 0.00 0.07 0.07 44 1010.3
20260502170514 57 306 3.0 9.0 0.00 0.07 0.07 52 1010.9
20260502164011 56 330 2.0 9.0 0.00 0.07 0.07 59 1011.0
20260502163511 56 318 2.0 9.0 0.00 0.07 0.07 57 1011.1
20260502163042 55 329 3.0 11.0 0.00 0.07 0.07 57 1011.2
20260502162511 55 304 5.0 11.0 0.00 0.07 0.07 52 1011.1
20260502162013 55 298 3.0 11.0 0.00 0.07 0.07 55 1011.3
20260502161533 56 325 3.0 11.0 0.00 0.07 0.07 52 1011.2
20260502161011 56 308 2.0 11.0 0.00 0.07 0.07 56 1011.4
20260502160508 55 0 1.0 11.0 0.00 0.07 0.07 53 1011.4
20260502152013 55 345 2.0 8.0 0.00 0.07 0.07 67 1011.7
20260502151540 54 0 0.0 8.0 0.00 0.07 0.07 69 1011.7
20260502151009 53 326 2.0 9.0 0.00 0.07 0.07 68 1011.7
20260502150509 52 318 2.0 9.0 0.00 0.07 0.07 71 1011.9
20260502130515 47 317 1.0 5.0 0.00 0.07 0.07 88 1012.2
20260502123513 47 0 0.0 6.0 0.00 0.07 0.07 91 1011.9
20260502123037 47 0 1.0 6.0 0.00 0.07 0.07 91 1011.7
20260502122516 47 297 0.0 5.0 0.00 0.07 0.07 91 1011.7
20260502122013 47 279 0.0 6.0 0.00 0.07 0.07 92 1011.7
20260502121530 47 319 1.0 7.0 0.00 0.07 0.07 92 1011.6
20260502121015 47 287 0.0 7.0 0.00 0.07 0.07 93 1011.7
20260502120517 47 0 0.0 3.0 0.00 0.07 0.07 93 1011.6
20260502115511 47 0 0.0 6.0 0.00 0.07 0.07 94 1011.4
20260502115011 47 330 1.0 6.0 0.00 0.07 0.07 95 1011.5
20260502114533 47 0 0.0 8.0 0.00 0.07 0.07 95 1011.6
20260502114013 46 289 1.0 8.0 0.00 0.07 0.07 95 1011.6
20260502113514 47 295 2.0 8.0 0.00 0.07 0.07 95 1011.6
20260502113030 47 302 0.0 6.0 0.00 0.07 0.07 96 1011.6
20260502112512 47 292 0.0 3.0 0.00 0.07 0.07 96 1011.6
20260502112012 46 290 0.0 3.0 0.00 0.07 0.07 96 1011.6
20260502111530 46 0 0.0 1.0 0.01 0.07 0.07 96 1011.6
20260502111014 45 0 0.0 1.0 0.01 0.07 0.07 96 1011.5
20260502110514 45 0 0.0 0.0 0.01 0.07 0.07 96 1011.4
20260502110032 45 0 0.0 0.0 0.01 0.07 0.07 95 1011.3
20260502105517 45 0 0.0 0.0 0.01 0.07 0.07 95 1011.2
20260502105012 44 0 0.0 0.0 0.01 0.07 0.07 95 1011.1
20260502104533 44 0 0.0 0.0 0.01 0.07 0.07 95 1011.1
20260502104014 44 0 0.0 0.0 0.01 0.07 0.07 95 1011.0
20260502103549 44 0 0.0 0.0 0.01 0.07 0.07 95 1010.9
20260502103032 44 0 0.0 0.0 0.01 0.07 0.07 94 1010.9
20260502102514 44 0 0.0 0.0 0.01 0.07 0.07 94 1010.9
20260502102012 44 0 0.0 0.0 0.00 0.06 0.06 94 1010.8
20260502101530 44 0 0.0 0.0 0.00 0.06 0.06 94 1010.7
20260502101012 45 0 0.0 0.0 0.00 0.06 0.06 94 1010.7
20260502100512 45 0 0.0 0.0 0.00 0.06 0.06 94 1010.8
20260502091530 46 0 0.0 0.0 0.01 0.06 0.06 94 1010.6
20260502091015 46 0 0.0 0.0 0.02 0.06 0.06 94 1010.6
20260502090514 46 0 0.0 0.0 0.02 0.06 0.06 95 1010.5
20260502071533 47 0 0.0 0.0 0.00 0.02 0.02 94 1011.1
20260502071013 47 0 0.0 0.0 0.00 0.02 0.02 93 1011.0
20260502070513 47 0 0.0 1.0 0.00 0.02 0.02 94 1011.1
20260502070034 47 0 0.0 1.0 0.00 0.02 0.02 93 1011.1
20260502065515 47 0 0.0 1.0 0.00 0.02 0.02 93 1010.8
20260502065011 47 0 0.0 0.0 0.00 0.02 0.02 93 1011.4
20260502064533 47 0 0.0 0.0 0.01 0.02 0.02 93 1011.4
20260502064021 47 0 0.0 0.0 0.01 0.02 0.02 93 1011.4
20260502063511 47 0 0.0 0.0 0.01 0.02 0.02 93 1011.4
20260502063028 47 0 0.0 0.0 0.01 0.02 0.02 93 1011.2
20260502062514 47 0 0.0 0.0 0.01 0.02 0.02 93 1011.4
20260502062011 47 0 0.0 0.0 0.01 0.02 0.02 93 1011.5
20260502061535 47 0 0.0 0.0 0.02 0.02 0.02 93 1011.5
20260502061011 47 0 0.0 0.0 0.02 0.02 0.02 93 1011.4
20260502060514 47 0 0.0 0.0 0.02 0.02 0.02 92 1011.5
20260502060030 47 0 0.0 0.0 0.02 0.02 0.02 92 1011.5
20260502055514 47 0 0.0 0.0 0.02 0.02 0.02 92 1011.2
20260502055012 47 0 0.0 0.0 0.02 0.02 0.02 92 1011.4
20260502054531 47 0 0.0 0.0 0.01 0.01 0.01 92 1011.4
20260502054014 47 0 0.0 0.0 0.01 0.01 0.01 92 1011.4
20260502053511 47 0 0.0 0.0 0.01 0.01 0.01 92 1011.4
20260502053031 47 0 0.0 0.0 0.01 0.01 0.01 91 1011.3
20260502052513 47 0 0.0 0.0 0.01 0.01 0.01 91 1011.1
20260502052011 47 0 0.0 0.0 0.01 0.01 0.01 91 1011.1
20260502051530 48 0 0.0 0.0 0.00 0.00 0.00 90 1011.1
20260502051011 48 0 0.0 0.0 0.00 0.00 0.00 90 1011.1
20260502050517 48 0 0.0 0.0 0.00 0.00 0.00 90 1011.2
20260502050028 48 0 0.0 0.0 0.00 0.00 0.00 90 1011.3
20260502045515 48 0 0.0 0.0 0.00 0.00 0.00 89 1011.4
20260502045014 48 0 0.0 0.0 0.00 0.00 0.00 88 1011.5
20260502044532 48 0 0.0 0.0 0.00 0.00 0.00 88 1011.4
20260502044017 48 0 0.0 0.0 0.00 0.00 0.00 88 1011.2
20260502043511 48 0 0.0 0.0 0.00 0.00 0.00 88 1011.0
20260502043032 48 0 0.0 0.0 0.00 0.00 0.00 87 1011.0
20260502042512 48 0 0.0 0.0 0.00 0.00 0.00 86 1010.9
20260502042018 48 0 0.0 1.0 0.00 0.00 0.00 87 1010.6
20260502041533 48 0 0.0 1.0 0.00 0.00 0.00 87 1010.8
20260502041013 48 0 0.0 1.0 0.00 0.00 0.00 87 1011.2
20260502040512 48 0 0.0 0.0 0.00 0.00 0.00 88 1011.2
20260502040037 48 0 0.0 0.0 0.00 0.00 0.00 88 1011.0
20260502035513 48 0 0.0 0.0 0.00 0.00 0.00 88 1011.1
20260502035016 48 0 0.0 0.0 0.00 0.00 0.00 87 1011.0
20260502034529 48 0 0.0 0.0 0.00 0.00 0.00 87 1010.9
20260502034011 48 0 0.0 0.0 0.00 0.00 0.00 87 1011.0
20260502033510 48 0 0.0 0.0 0.00 0.00 0.00 87 1010.9
20260502033028 48 0 0.0 0.0 0.00 0.00 0.00 87 1010.9
20260502032511 48 0 0.0 0.0 0.00 0.00 0.00 87 1011.0
20260502032015 48 0 0.0 0.0 0.00 0.00 0.00 88 1011.1
20260502031534 48 0 0.0 0.0 0.00 0.00 0.00 88 1011.1
20260502031012 48 0 0.0 0.0 0.00 0.00 0.00 88 1011.0
20260502030515 48 0 0.0 0.0 0.00 0.00 0.00 88 1011.0
20260502030030 48 0 0.0 0.0 0.00 0.00 0.00 88 1011.1
20260502025511 48 0 0.0 0.0 0.00 0.00 0.00 88 1011.1
20260502025014 48 0 0.0 0.0 0.00 0.00 0.00 88 1011.2
20260502024532 48 0 0.0 0.0 0.00 0.00 0.00 88 1011.2
20260502024015 48 0 0.0 0.0 0.00 0.00 0.00 87 1011.2
20260502023511 48 0 0.0 0.0 0.00 0.00 0.00 87 1011.2
20260502023030 48 0 0.0 0.0 0.00 0.00 0.00 87 1011.1
20260502022511 48 0 0.0 0.0 0.00 0.00 0.00 87 1011.3
20260502022011 48 0 0.0 0.0 0.00 0.00 0.00 86 1011.1